Torna al catalogo

FENGYUN 1C DEB

AttivoSSO
NORAD 30446·DEBRIS·🇨🇳 China

Lanciato May 10, 1999 da Taiyuan Satellite Launch Center

Loading…

Prossimi Passaggi (prossime 24 ore)

TLE

AggiornatoSource: Space-Track

Epoca: Sep 13, 2026, 11:40 UTC

1 30446U 99025AFH 26256.48628412  .00002895  00000-0  79614-3 0  9992
2 30446  98.6054 348.1774 0031576 349.5618  10.4915 14.47446781 21495

Traccia FENGYUN 1C DEB in tempo reale con AllMySat

Download on the App Store